,,,PA_Meas_PMT16A,,PR_Meas_QMR101_102,,RH_Meas_QMH101,,SR_Meas_QMS101,,TA_Meas_QMH101,,GenWind,,GenWind,
date,time,status,PA,status,PR,status,RH,status,SR,status,TA,status,DirAvg,status,SpdAvg,
2010-03-05, 00:00:04,VALID,1006.12,VALID,0,VALID,84.4517,VALID,0.100563,VALID,26.0966,VALID,1,VALID,0.619922,
2010-03-05, 00:01:04,VALID,1006.13,VALID,0,VALID,85.3443,VALID,0,VALID,26.0985,VALID,2,VALID,0.666797,
2010-03-05, 00:02:04,VALID,1006.14,VALID,0,VALID,85.3443,VALID,0,VALID,26.0401,VALID,2,VALID,0.713672,
2010-03-05, 00:03:04,VALID,1006.14,VALID,0,VALID,85.4816,VALID,0,VALID,25.9602,VALID,360,VALID,0.725391,
2010-03-05, 00:04:04,VALID,1006.11,VALID,0,VALID,85.7639,VALID,0,VALID,25.9427,VALID,8,VALID,0.65625,
2010-03-05, 00:05:04,VALID,1006.13,VALID,0,VALID,85.6189,VALID,0.100563,VALID,25.9232,VALID,13,VALID,0.733594,
2010-03-05, 00:06:04,VALID,1006.08,VALID,0,VALID,85.6571,VALID,0,VALID,25.8823,VALID,3,VALID,0.608203,
2010-03-05, 00:07:04,VALID,1006.09,VALID,0,VALID,86.0156,VALID,0,VALID,25.8629,VALID,359,VALID,0.912109,
2010-03-05, 00:08:04,VALID,1006.09,VALID,0,VALID,85.3443,VALID,0,VALID,25.8434,VALID,4,VALID,1.26367,
2010-03-05, 00:09:04,VALID,1006.06,VALID,0,VALID,84.9781,VALID,0,VALID,25.9018,VALID,5,VALID,0.987109,
2010-03-05, 00:10:04,VALID,1006.05,VALID,0,VALID,84.7263,VALID,0.100563,VALID,25.9602,VALID,355,VALID,1.58477,
2010-03-05, 00:11:04,VALID,1006.02,VALID,0,VALID,84.6195,VALID,0.100563,VALID,26.0187,VALID,5,VALID,1.02461,
2010-03-05, 00:12:04,VALID,1006.03,VALID,0,VALID,84.4059,VALID,0,VALID,26.0381,VALID,1,VALID,1.15977,
2010-03-05, 00:13:04,VALID,1006.02,VALID,0,VALID,84.5356,VALID,0,VALID,26.0596,VALID,2,VALID,0.91875,
2010-03-05, 00:14:04,VALID,1006.04,VALID,0,VALID,84.4975,VALID,0,VALID,26.0791,VALID,7,VALID,0.948828,
2010-03-05, 00:15:04,VALID,1006.02,VALID,0,VALID,83.9787,VALID,0,VALID,26.081,VALID,24,VALID,1.9375,
2010-03-05, 00:16:04,VALID,1006.04,VALID,0,VALID,83.8414,VALID,0,VALID,26.118,VALID,13,VALID,1.79297,
2010-03-05, 00:17:04,VALID,1006.06,VALID,0,VALID,83.9482,VALID,0,VALID,26.159,VALID,13,VALID,1.71016,
2010-03-05, 00:18:04,VALID,1006,VALID,0,VALID,83.46,VALID,0,VALID,26.157,VALID,25,VALID,1.95977,
2010-03-05, 00:19:04,VALID,1006.03,VALID,0,VALID,83.727,VALID,0,VALID,26.1979,VALID,19,VALID,1.61484,
2010-03-05, 00:20:04,VALID,1006,VALID,0,VALID,83.9863,VALID,0,VALID,26.1979,VALID,12,VALID,1.21914,
2010-03-05, 00:21:04,VALID,1005.96,VALID,0,VALID,84.2534,VALID,0,VALID,26.1375,VALID,22,VALID,1.93711,
2010-03-05, 00:22:04,VALID,1005.96,VALID,0,VALID,84.6119,VALID,0,VALID,26.12,VALID,25,VALID,1.24961,
2010-03-05, 00:23:04,VALID,1005.99,VALID,0,VALID,84.4746,VALID,0,VALID,26.0596,VALID,11,VALID,1.76758,
2010-03-05, 00:24:04,VALID,1005.97,VALID,0,VALID,84.9552,VALID,0,VALID,26.081,VALID,15,VALID,1.40703,
2010-03-05, 00:25:04,VALID,1005.92,VALID,0,VALID,84.7492,VALID,0,VALID,26.0791,VALID,15,VALID,1.51914,
2010-03-05, 00:26:04,VALID,1005.93,VALID,0,VALID,84.6424,VALID,0,VALID,26.1005,VALID,11,VALID,1.41758,
2010-03-05, 00:27:04,VALID,1005.95,VALID,0,VALID,84.7492,VALID,0,VALID,26.118,VALID,357,VALID,1.12188,
2010-03-05, 00:28:04,VALID,1005.93,VALID,0,VALID,84.7492,VALID,0,VALID,26.1395,VALID,9,VALID,1.56758,
2010-03-05, 00:29:04,VALID,1005.94,VALID,0,VALID,85.123,VALID,0,VALID,26.1375,VALID,8,VALID,0.942187,
2010-03-05, 00:30:04,VALID,1005.92,VALID,0,VALID,84.8713,VALID,0,VALID,26.1375,VALID,17,VALID,1.58711,
2010-03-05, 00:31:04,VALID,1005.92,VALID,0,VALID,85.0925,VALID,0,VALID,26.159,VALID,18,VALID,1.37891,
2010-03-05, 00:32:04,VALID,1005.91,VALID,0,VALID,85.1307,VALID,0,VALID,26.159,VALID,16,VALID,1.24648,
2010-03-05, 00:33:04,VALID,1005.88,VALID,0,VALID,85.0925,VALID,0,VALID,26.1375,VALID,22,VALID,1.22773,
2010-03-05, 00:34:04,VALID,1005.85,VALID,0,VALID,85.3367,VALID,0,VALID,26.1375,VALID,17,VALID,1.1332,
2010-03-05, 00:35:04,VALID,1005.87,VALID,0,VALID,85.0391,VALID,0,VALID,26.159,VALID,13,VALID,1.87852,
2010-03-05, 00:36:04,VALID,1005.85,VALID,0,VALID,84.7721,VALID,0,VALID,26.157,VALID,3,VALID,1.70117,
2010-03-05, 00:37:04,VALID,1005.88,VALID,0,VALID,84.8713,VALID,0,VALID,26.157,VALID,355,VALID,1.39805,
2010-03-05, 00:38:04,VALID,1005.84,VALID,0,VALID,84.9857,VALID,0,VALID,26.1765,VALID,356,VALID,1.2207,
2010-03-05, 00:39:04,VALID,1005.88,VALID,0,VALID,84.7416,VALID,0,VALID,26.1765,VALID,357,VALID,1.52266,
2010-03-05, 00:40:04,VALID,1005.86,VALID,0,VALID,84.5661,VALID,0,VALID,26.157,VALID,350,VALID,1.3707,
2010-03-05, 00:41:04,VALID,1005.87,VALID,0,VALID,84.467,VALID,0,VALID,26.157,VALID,357,VALID,1.54141,
2010-03-05, 00:42:04,VALID,1005.86,VALID,0,VALID,84.6119,VALID,0,VALID,26.1395,VALID,354,VALID,1.19727,
2010-03-05, 00:43:04,VALID,1005.86,VALID,0,VALID,84.7035,VALID,0,VALID,26.12,VALID,345,VALID,1.07852,
2010-03-05, 00:44:04,VALID,1005.87,VALID,0,VALID,85.062,VALID,0,VALID,26.0791,VALID,349,VALID,0.954687,
2010-03-05, 00:45:04,VALID,1005.87,VALID,0,VALID,85.5808,VALID,0,VALID,26.081,VALID,343,VALID,1.06016,
2010-03-05, 00:46:04,VALID,1005.89,VALID,0,VALID,85.9851,VALID,0,VALID,26.0031,VALID,348,VALID,0.969922,
2010-03-05, 00:47:04,VALID,1005.85,VALID,0,VALID,86.2903,VALID,0,VALID,25.9057,VALID,343,VALID,0.98125,
2010-03-05, 00:48:04,VALID,1005.85,VALID,0,VALID,86.6641,VALID,0,VALID,25.8259,VALID,347,VALID,0.842969,
2010-03-05, 00:49:04,VALID,1005.86,VALID,0,VALID,86.8701,VALID,0,VALID,25.7889,VALID,357,VALID,0.908203,
2010-03-05, 00:50:04,VALID,1005.85,VALID,0,VALID,87.3354,VALID,0,VALID,25.7285,VALID,344,VALID,0.544141,
2010-03-05, 00:51:04,VALID,1005.84,VALID,0,VALID,87.5185,VALID,0,VALID,25.67,VALID,354,VALID,0.499219,
2010-03-05, 00:52:04,VALID,1005.82,VALID,0,VALID,87.5795,VALID,0,VALID,25.6525,VALID,352,VALID,0.548437,
2010-03-05, 00:53:04,VALID,1005.85,VALID,0,VALID,87.7855,VALID,0,VALID,25.6116,VALID,357,VALID,0.632422,
2010-03-05, 00:54:04,VALID,1005.83,VALID,0,VALID,87.8466,VALID,0,VALID,25.5941,VALID,341,VALID,0.539453,
2010-03-05, 00:55:04,VALID,1005.84,VALID,0,VALID,87.961,VALID,0,VALID,25.5532,VALID,7,VALID,0.555078,
2010-03-05, 00:56:04,VALID,1005.84,VALID,0,VALID,88.1136,VALID,0,VALID,25.5551,VALID,16,VALID,0.569141,
2010-03-05, 00:57:04,VALID,1005.83,VALID,0,VALID,88.2127,VALID,0,VALID,25.5162,VALID,358,VALID,0.957031,
2010-03-05, 00:58:04,VALID,1005.82,VALID,0,VALID,88.3729,VALID,0,VALID,25.5162,VALID,349,VALID,0.824219,
2010-03-05, 00:59:04,VALID,1005.83,VALID,0,VALID,88.5332,VALID,0,VALID,25.4967,VALID,347,VALID,1.03164,
2010-03-05, 01:00:04,VALID,1005.8,VALID,0,VALID,88.7544,VALID,0,VALID,25.4363,VALID,354,VALID,1.12695,
2010-03-05, 01:01:04,VALID,1005.76,VALID,0,VALID,88.8688,VALID,0,VALID,25.4188,VALID,341,VALID,0.714063,
2010-03-05, 01:02:04,VALID,1005.75,VALID,0,VALID,88.9146,VALID,0,VALID,25.3779,VALID,343,VALID,1.0582,
2010-03-05, 01:03:04,VALID,1005.74,VALID,0,VALID,89.1053,VALID,0,VALID,25.3584,VALID,350,VALID,0.537891,
2010-03-05, 01:04:04,VALID,1005.76,VALID,0,VALID,89.2198,VALID,0,VALID,25.3584,VALID,343,VALID,0.746094,
2010-03-05, 01:05:04,VALID,1005.75,VALID,0,VALID,89.1206,VALID,0,VALID,25.3409,VALID,344,VALID,0.826172,
2010-03-05, 01:06:04,VALID,1005.74,VALID,0,VALID,89.3037,VALID,0,VALID,25.3214,VALID,349,VALID,0.570313,
2010-03-05, 01:07:04,VALID,1005.74,VALID,0,VALID,89.5325,VALID,0,VALID,25.3,VALID,348,VALID,0.471484,
2010-03-05, 01:08:04,VALID,1005.73,VALID,0,VALID,89.4715,VALID,0,VALID,25.2806,VALID,348,VALID,0.535937,
2010-03-05, 01:09:04,VALID,1005.7,VALID,0,VALID,89.4868,VALID,0,VALID,25.2611,VALID,348,VALID,0.583984,
2010-03-05, 01:10:04,VALID,1005.7,VALID,0,VALID,89.5707,VALID,0,VALID,25.263,VALID,348,VALID,0.498437,
2010-03-05, 01:11:04,VALID,1005.69,VALID,0,VALID,89.7767,VALID,0,VALID,25.2416,VALID,347,VALID,0.435156,
2010-03-05, 01:12:04,VALID,1005.69,VALID,0,VALID,89.8072,VALID,0,VALID,25.263,VALID,346,VALID,0.501953,
2010-03-05, 01:13:04,VALID,1005.67,VALID,0,VALID,89.9521,VALID,0,VALID,25.2416,VALID,348,VALID,0.626953,
2010-03-05, 01:14:04,VALID,1005.65,VALID,0,VALID,90.0208,VALID,0,VALID,25.2435,VALID,349,VALID,0.551562,
2010-03-05, 01:15:04,VALID,1005.64,VALID,0,VALID,90.1657,VALID,0,VALID,25.2221,VALID,349,VALID,0.490234,
2010-03-05, 01:16:04,VALID,1005.62,VALID,0,VALID,90.3107,VALID,0,VALID,25.2221,VALID,356,VALID,0.271875,
2010-03-05, 01:17:04,VALID,1005.63,VALID,0,VALID,90.4785,VALID,0,VALID,25.2435,VALID,356,VALID,0.110156,
2010-03-05, 01:18:04,VALID,1005.62,VALID,0,VALID,90.5624,VALID,0,VALID,25.2435,VALID,355,VALID,0.369141,
2010-03-05, 01:19:04,VALID,1005.6,VALID,0,VALID,90.6921,VALID,0,VALID,25.2435,VALID,355,VALID,0,
2010-03-05, 01:20:04,VALID,1005.62,VALID,0,VALID,90.8523,VALID,0,VALID,25.263,VALID,355,VALID,0,
2010-03-05, 01:21:04,VALID,1005.6,VALID,0,VALID,90.8981,VALID,0,VALID,25.263,VALID,353,VALID,0.213672,
2010-03-05, 01:22:04,VALID,1005.59,VALID,0,VALID,90.7989,VALID,0,VALID,25.2416,VALID,291,VALID,0.195313,
2010-03-05, 01:23:04,VALID,1005.58,VALID,0,VALID,90.8752,VALID,0,VALID,25.2416,VALID,291,VALID,0.000390625,
2010-03-05, 01:24:04,VALID,1005.57,VALID,0,VALID,90.7074,VALID,0,VALID,25.2221,VALID,355,VALID,0.483203,
2010-03-05, 01:25:04,VALID,1005.56,VALID,0,VALID,90.715,VALID,0,VALID,25.263,VALID,354,VALID,0.330078,
2010-03-05, 01:26:04,VALID,1005.54,VALID,0,VALID,90.6769,VALID,0,VALID,25.2221,VALID,350,VALID,0.459766,
2010-03-05, 01:27:04,VALID,1005.54,VALID,0,VALID,90.6921,VALID,0,VALID,25.2221,VALID,350,VALID,0,
2010-03-05, 01:28:04,VALID,1005.54,VALID,0,VALID,90.86,VALID,0,VALID,25.2416,VALID,350,VALID,0,
2010-03-05, 01:29:04,VALID,1005.54,VALID,0,VALID,90.9591,VALID,0,VALID,25.2416,VALID,350,VALID,0,
2010-03-05, 01:30:04,VALID,1005.51,VALID,0,VALID,90.9973,VALID,0,VALID,25.2397,VALID,350,VALID,0.208203,
2010-03-05, 01:31:04,VALID,1005.51,VALID,0,VALID,91.0354,VALID,0,VALID,25.2592,VALID,350,VALID,0.186328,
2010-03-05, 01:32:04,VALID,1005.47,VALID,0,VALID,90.9515,VALID,0,VALID,25.2397,VALID,358,VALID,0.647266,
2010-03-05, 01:33:04,VALID,1005.49,VALID,0,VALID,90.9744,VALID,0.100563,VALID,25.2397,VALID,358,VALID,0.360547,
2010-03-05, 01:34:04,VALID,1005.46,VALID,0,VALID,91.0049,VALID,0,VALID,25.2397,VALID,358,VALID,0.237891,
2010-03-05, 01:35:04,VALID,1005.47,VALID,0,VALID,90.9897,VALID,0.100563,VALID,25.2397,VALID,358,VALID,0.176563,
2010-03-05, 01:36:04,VALID,1005.48,VALID,0,VALID,90.9591,VALID,0.100563,VALID,25.2397,VALID,358,VALID,0,
2010-03-05, 01:37:04,VALID,1005.46,VALID,0,VALID,91.0125,VALID,0,VALID,25.2397,VALID,358,VALID,0,
2010-03-05, 01:38:04,VALID,1005.47,VALID,0,VALID,91.0812,VALID,0,VALID,25.2397,VALID,358,VALID,0,
2010-03-05, 01:39:04,VALID,1005.47,VALID,0,VALID,91.0125,VALID,0,VALID,25.2397,VALID,298,VALID,0.0488281,
2010-03-05, 01:40:04,VALID,1005.46,VALID,0,VALID,91.0202,VALID,0,VALID,25.2416,VALID,323,VALID,0.373437,
2010-03-05, 01:41:04,VALID,1005.48,VALID,0,VALID,90.7379,VALID,0.100563,VALID,25.2202,VALID,320,VALID,0.769141,
2010-03-05, 01:42:04,VALID,1005.47,VALID,0,VALID,90.8447,VALID,0.100563,VALID,25.2397,VALID,324,VALID,0.202734,
2010-03-05, 01:43:04,VALID,1005.45,VALID,0,VALID,90.7074,VALID,0.100563,VALID,25.2397,VALID,303,VALID,0.857422,
2010-03-05, 01:44:04,VALID,1005.46,VALID,0,VALID,90.5624,VALID,0.100563,VALID,25.2397,VALID,308,VALID,0.152734,
2010-03-05, 01:45:04,VALID,1005.45,VALID,0,VALID,90.7303,VALID,0,VALID,25.2825,VALID,308,VALID,0,
2010-03-05, 01:46:04,VALID,1005.45,VALID,0,VALID,90.6998,VALID,0,VALID,25.2611,VALID,354,VALID,0.31875,
2010-03-05, 01:47:04,VALID,1005.46,VALID,0,VALID,90.715,VALID,0,VALID,25.2416,VALID,350,VALID,0.848828,
2010-03-05, 01:48:04,VALID,1005.45,VALID,0,VALID,90.9134,VALID,0,VALID,25.2416,VALID,356,VALID,1.05352,
2010-03-05, 01:49:04,VALID,1005.46,VALID,0,VALID,91.1117,VALID,0,VALID,25.2221,VALID,343,VALID,0.574609,
2010-03-05, 01:50:04,VALID,1005.45,VALID,0,VALID,91.3253,VALID,0,VALID,25.2027,VALID,351,VALID,0.666016,
2010-03-05, 01:51:04,VALID,1005.42,VALID,0,VALID,91.5542,VALID,0,VALID,25.1637,VALID,352,VALID,0.958984,
2010-03-05, 01:52:04,VALID,1005.37,VALID,0,VALID,91.6076,VALID,0,VALID,25.1442,VALID,351,VALID,0.900781,
2010-03-05, 01:53:04,VALID,1005.38,VALID,0,VALID,91.7754,VALID,0,VALID,25.1248,VALID,2,VALID,0.691406,
2010-03-05, 01:54:04,VALID,1005.37,VALID,0,VALID,91.7449,VALID,0,VALID,25.1267,VALID,338,VALID,0.946875,
2010-03-05, 01:55:04,VALID,1005.33,VALID,0,VALID,91.8441,VALID,0,VALID,25.0858,VALID,348,VALID,0.667969,
2010-03-05, 01:56:04,VALID,1005.35,VALID,0,VALID,91.9128,VALID,0,VALID,25.0858,VALID,345,VALID,0.865625,
2010-03-05, 01:57:04,VALID,1005.35,VALID,0,VALID,91.8365,VALID,0,VALID,25.0858,VALID,357,VALID,0.912109,
2010-03-05, 01:58:04,VALID,1005.31,VALID,0,VALID,91.7525,VALID,0,VALID,25.0663,VALID,351,VALID,0.767187,
2010-03-05, 01:59:04,VALID,1005.31,VALID,0,VALID,91.6763,VALID,0,VALID,25.0858,VALID,356,VALID,0.870313,
2010-03-05, 02:00:04,VALID,1005.28,VALID,0,VALID,91.5389,VALID,0,VALID,25.0663,VALID,348,VALID,0.659375,
2010-03-05, 02:01:04,VALID,1005.29,VALID,0,VALID,91.5389,VALID,0,VALID,25.0858,VALID,338,VALID,0.641016,
2010-03-05, 02:02:04,VALID,1005.26,VALID,0,VALID,91.4092,VALID,0,VALID,25.0858,VALID,352,VALID,0.536719,
2010-03-05, 02:03:04,VALID,1005.25,VALID,0,VALID,91.1422,VALID,0,VALID,25.0663,VALID,354,VALID,1.06875,
2010-03-05, 02:04:04,VALID,1005.24,VALID,0,VALID,90.9973,VALID,0,VALID,25.0663,VALID,354,VALID,0.787891,
2010-03-05, 02:05:04,VALID,1005.23,VALID,0,VALID,90.8905,VALID,0,VALID,25.0663,VALID,352,VALID,0.8625,
2010-03-05, 02:06:04,VALID,1005.24,VALID,0,VALID,90.8523,VALID,0,VALID,25.0469,VALID,11,VALID,0.860547,
2010-03-05, 02:07:04,VALID,1005.18,VALID,0,VALID,90.7455,VALID,0,VALID,25.0682,VALID,348,VALID,0.913672,
2010-03-05, 02:08:05,VALID,1005.2,VALID,0,VALID,90.8447,VALID,0,VALID,25.0682,VALID,353,VALID,0.691797,
2010-03-05, 02:09:05,VALID,1005.21,VALID,0,VALID,90.8295,VALID,0,VALID,25.0488,VALID,356,VALID,0.987109,
2010-03-05, 02:10:05,VALID,1005.2,VALID,0,VALID,90.9286,VALID,0,VALID,25.0079,VALID,346,VALID,1.03203,
2010-03-05, 02:11:05,VALID,1005.2,VALID,0,VALID,90.982,VALID,0,VALID,24.9885,VALID,355,VALID,0.718359,
2010-03-05, 02:12:05,VALID,1005.18,VALID,0,VALID,91.0736,VALID,0,VALID,24.9885,VALID,352,VALID,1.10352,
2010-03-05, 02:13:05,VALID,1005.17,VALID,0,VALID,91.1346,VALID,0,VALID,24.9495,VALID,352,VALID,0.705469,
2010-03-05, 02:14:04,VALID,1005.17,VALID,0,VALID,91.1804,VALID,0,VALID,24.9495,VALID,338,VALID,0.599609,
2010-03-05, 02:15:05,VALID,1005.15,VALID,0,VALID,91.3024,VALID,0,VALID,24.9495,VALID,342,VALID,0.808984,
2010-03-05, 02:16:05,VALID,1005.15,VALID,0,VALID,91.4474,VALID,0,VALID,24.9106,VALID,13,VALID,0.234375,
2010-03-05, 02:17:05,VALID,1005.14,VALID,0,VALID,91.5237,VALID,0,VALID,24.9106,VALID,349,VALID,0.271484,
2010-03-05, 02:18:05,VALID,1005.13,VALID,0,VALID,91.5771,VALID,0,VALID,24.8911,VALID,356,VALID,0.773047,
2010-03-05, 02:19:05,VALID,1005.13,VALID,0,VALID,91.6229,VALID,0,VALID,24.8716,VALID,350,VALID,0.666406,
2010-03-05, 02:20:05,VALID,1005.11,VALID,0,VALID,91.7144,VALID,0,VALID,24.8522,VALID,350,VALID,0.698438,
2010-03-05, 02:21:05,VALID,1005.11,VALID,0,VALID,91.7907,VALID,0,VALID,24.8132,VALID,346,VALID,0.599219,
2010-03-05, 02:22:05,VALID,1005.13,VALID,0,VALID,91.867,VALID,0,VALID,24.7937,VALID,345,VALID,0.802344,
2010-03-05, 02:23:05,VALID,1005.12,VALID,0,VALID,91.928,VALID,0,VALID,24.7548,VALID,345,VALID,0.621094,
2010-03-05, 02:24:05,VALID,1005.13,VALID,0,VALID,92.0348,VALID,0,VALID,24.7743,VALID,335,VALID,0.476953,
2010-03-05, 02:25:05,VALID,1005.17,VALID,0,VALID,92.0882,VALID,0,VALID,24.7548,VALID,347,VALID,0.576953,
2010-03-05, 02:26:05,VALID,1005.16,VALID,0,VALID,92.1569,VALID,0,VALID,24.714,VALID,347,VALID,0.358984,
2010-03-05, 02:27:05,VALID,1005.17,VALID,0,VALID,92.2332,VALID,0,VALID,24.7159,VALID,350,VALID,0.660156,
2010-03-05, 02:28:05,VALID,1005.16,VALID,0,VALID,92.3171,VALID,0,VALID,24.6964,VALID,349,VALID,0.508203,
2010-03-05, 02:29:05,VALID,1005.19,VALID,0,VALID,92.3476,VALID,0,VALID,24.6769,VALID,349,VALID,0.569141,
2010-03-05, 02:30:05,VALID,1005.18,VALID,0,VALID,92.4315,VALID,0,VALID,24.638,VALID,348,VALID,0.482031,
2010-03-05, 02:31:05,VALID,1005.19,VALID,0,VALID,92.4925,VALID,0,VALID,24.6166,VALID,348,VALID,0.539063,
2010-03-05, 02:32:05,VALID,1005.17,VALID,0,VALID,92.607,VALID,0,VALID,24.5972,VALID,348,VALID,0.657422,
2010-03-05, 02:33:05,VALID,1005.17,VALID,0,VALID,92.6833,VALID,0,VALID,24.599,VALID,348,VALID,0.589844,
2010-03-05, 02:34:05,VALID,1005.19,VALID,0,VALID,92.8053,VALID,0,VALID,24.5796,VALID,347,VALID,0.498828,
2010-03-05, 02:35:05,VALID,1005.17,VALID,0,VALID,92.874,VALID,0,VALID,24.5796,VALID,347,VALID,0.680859,
2010-03-05, 02:36:05,VALID,1005.17,VALID,0,VALID,92.935,VALID,0,VALID,24.5601,VALID,348,VALID,0.748828,
2010-03-05, 02:37:05,VALID,1005.16,VALID,0,VALID,93.0266,VALID,0,VALID,24.5601,VALID,348,VALID,0.716797,
2010-03-05, 02:38:05,VALID,1005.17,VALID,0,VALID,93.08,VALID,0,VALID,24.5406,VALID,1,VALID,1.2457,
2010-03-05, 02:39:05,VALID,1005.14,VALID,0,VALID,93.1868,VALID,0,VALID,24.5406,VALID,348,VALID,0.889063,
2010-03-05, 02:40:05,VALID,1005.14,VALID,0,VALID,93.1563,VALID,0,VALID,24.5388,VALID,6,VALID,0.776172,
2010-03-05, 02:41:05,VALID,1005.11,VALID,0,VALID,93.1715,VALID,0,VALID,24.5388,VALID,343,VALID,0.594922,
2010-03-05, 02:42:05,VALID,1005.11,VALID,0,VALID,93.2173,VALID,0,VALID,24.5601,VALID,358,VALID,0.794922,
2010-03-05, 02:43:05,VALID,1005.1,VALID,0,VALID,93.2325,VALID,0,VALID,24.5777,VALID,346,VALID,0.917578,
2010-03-05, 02:44:05,VALID,1005.08,VALID,0,VALID,93.2173,VALID,0,VALID,24.5582,VALID,349,VALID,1.02461,
2010-03-05, 02:45:05,VALID,1005.09,VALID,0,VALID,93.1791,VALID,0,VALID,24.599,VALID,5,VALID,1.27656,
2010-03-05, 02:46:05,VALID,1005.1,VALID,0,VALID,93.1181,VALID,0,VALID,24.6185,VALID,355,VALID,0.930859,
2010-03-05, 02:47:05,VALID,1005.06,VALID,0,VALID,92.9655,VALID,0,VALID,24.6574,VALID,354,VALID,0.960156,
2010-03-05, 02:48:05,VALID,1005.09,VALID,0,VALID,92.8282,VALID,0,VALID,24.6537,VALID,316,VALID,0.696094,
2010-03-05, 02:49:05,VALID,1005.1,VALID,0,VALID,92.7214,VALID,0,VALID,24.675,VALID,354,VALID,0.886719,
2010-03-05, 02:50:05,VALID,1005.1,VALID,0,VALID,92.4544,VALID,0,VALID,24.6945,VALID,347,VALID,1.25391,
2010-03-05, 02:51:05,VALID,1005.12,VALID,0,VALID,92.2332,VALID,0,VALID,24.7548,VALID,345,VALID,0.733203,
2010-03-05, 02:52:05,VALID,1005.12,VALID,0,VALID,92.1416,VALID,0,VALID,24.7743,VALID,338,VALID,0.664453,
2010-03-05, 02:53:05,VALID,1005.13,VALID,0,VALID,92.0043,VALID,0,VALID,24.7724,VALID,354,VALID,0.982422,
2010-03-05, 02:54:05,VALID,1005.12,VALID,0,VALID,91.9585,VALID,0,VALID,24.8132,VALID,348,VALID,0.892578,
2010-03-05, 02:55:05,VALID,1005.15,VALID,0,VALID,91.8822,VALID,0,VALID,24.8132,VALID,344,VALID,0.836328,
2010-03-05, 02:56:05,VALID,1005.15,VALID,0,VALID,91.8594,VALID,0,VALID,24.8132,VALID,2,VALID,0.966406,
2010-03-05, 02:57:05,VALID,1005.15,VALID,0,VALID,91.8136,VALID,0.100563,VALID,24.8327,VALID,355,VALID,0.790625,
2010-03-05, 02:58:05,VALID,1005.14,VALID,0,VALID,91.7907,VALID,0,VALID,24.8132,VALID,357,VALID,0.732813,
2010-03-05, 02:59:05,VALID,1005.13,VALID,0,VALID,91.6229,VALID,0,VALID,24.8327,VALID,360,VALID,1.27188,
2010-03-05, 03:00:05,VALID,1005.15,VALID,0,VALID,91.7144,VALID,0,VALID,24.8327,VALID,360,VALID,0.663281,
2010-03-05, 03:01:05,VALID,1005.14,VALID,0,VALID,91.6305,VALID,0,VALID,24.8327,VALID,356,VALID,1.1375,
2010-03-05, 03:02:05,VALID,1005.14,VALID,0,VALID,91.5695,VALID,0,VALID,24.8327,VALID,342,VALID,0.742578,
2010-03-05, 03:03:05,VALID,1005.15,VALID,0,VALID,91.5847,VALID,0,VALID,24.8327,VALID,353,VALID,0.823438,
2010-03-05, 03:04:05,VALID,1005.16,VALID,0,VALID,91.6,VALID,0,VALID,24.8327,VALID,4,VALID,0.798828,
2010-03-05, 03:05:05,VALID,1005.17,VALID,0,VALID,91.6534,VALID,0,VALID,24.8327,VALID,356,VALID,0.8875,
2010-03-05, 03:06:05,VALID,1005.16,VALID,0,VALID,91.6305,VALID,0,VALID,24.8132,VALID,358,VALID,0.575391,
2010-03-05, 03:07:05,VALID,1005.1,VALID,0,VALID,91.6534,VALID,0,VALID,24.8132,VALID,353,VALID,0.738672,
2010-03-05, 03:08:05,VALID,1005.11,VALID,0,VALID,91.7068,VALID,0,VALID,24.7937,VALID,347,VALID,0.866406,
2010-03-05, 03:09:05,VALID,1005.1,VALID,0,VALID,91.8288,VALID,0,VALID,24.7937,VALID,357,VALID,0.801172,
2010-03-05, 03:10:05,VALID,1005.08,VALID,0,VALID,91.7907,VALID,0,VALID,24.7743,VALID,345,VALID,0.609766,
2010-03-05, 03:11:05,VALID,1005.1,VALID,0,VALID,91.8288,VALID,0,VALID,24.7743,VALID,347,VALID,0.696094,
2010-03-05, 03:12:05,VALID,1005.09,VALID,0,VALID,91.8212,VALID,0,VALID,24.7548,VALID,354,VALID,0.814844,
2010-03-05, 03:13:05,VALID,1005.08,VALID,0,VALID,91.8746,VALID,0,VALID,24.7548,VALID,353,VALID,0.757813,
2010-03-05, 03:14:05,VALID,1005.09,VALID,0,VALID,91.9051,VALID,0,VALID,24.7353,VALID,356,VALID,0.801562,
2010-03-05, 03:15:05,VALID,1005.09,VALID,0,VALID,91.928,VALID,0,VALID,24.7353,VALID,353,VALID,0.870703,
2010-03-05, 03:16:05,VALID,1005.07,VALID,0,VALID,91.867,VALID,0,VALID,24.7353,VALID,353,VALID,0.616016,
2010-03-05, 03:17:05,VALID,1005.06,VALID,0,VALID,91.867,VALID,0,VALID,24.7548,VALID,352,VALID,0.660156,
2010-03-05, 03:18:05,VALID,1005.04,VALID,0,VALID,91.7068,VALID,0,VALID,24.7548,VALID,351,VALID,1.19844,
2010-03-05, 03:19:05,VALID,1005.04,VALID,0,VALID,91.4626,VALID,0,VALID,24.7548,VALID,355,VALID,0.970703,
2010-03-05, 03:20:05,VALID,1005.05,VALID,0,VALID,91.249,VALID,0,VALID,24.8132,VALID,353,VALID,1.02188,
2010-03-05, 03:21:05,VALID,1005.01,VALID,0,VALID,90.8752,VALID,0,VALID,24.8132,VALID,352,VALID,1.09805,
2010-03-05, 03:22:05,VALID,1005.04,VALID,0,VALID,90.7455,VALID,0,VALID,24.8327,VALID,350,VALID,0.763281,
2010-03-05, 03:23:05,VALID,1005.02,VALID,0,VALID,90.6235,VALID,0,VALID,24.8716,VALID,349,VALID,0.626562,
2010-03-05, 03:24:05,VALID,1005.02,VALID,0,VALID,90.509,VALID,0,VALID,24.8503,VALID,351,VALID,0.761719,
2010-03-05, 03:25:05,VALID,1005.07,VALID,0,VALID,90.3031,VALID,0,VALID,24.8716,VALID,348,VALID,0.786328,
2010-03-05, 03:26:05,VALID,1005.06,VALID,0,VALID,90.181,VALID,0,VALID,24.9106,VALID,350,VALID,0.980469,
2010-03-05, 03:27:05,VALID,1005.07,VALID,0,VALID,89.9826,VALID,0,VALID,24.9106,VALID,350,VALID,0.932031,
2010-03-05, 03:28:05,VALID,1005.08,VALID,0,VALID,89.7004,VALID,0,VALID,24.93,VALID,359,VALID,0.967969,
2010-03-05, 03:29:05,VALID,1005.12,VALID,0,VALID,89.5936,VALID,0,VALID,24.9495,VALID,343,VALID,0.705078,
2010-03-05, 03:30:05,VALID,1005.14,VALID,0,VALID,89.5097,VALID,0,VALID,24.969,VALID,359,VALID,0.552734,
2010-03-05, 03:31:05,VALID,1005.12,VALID,0,VALID,89.1358,VALID,0,VALID,24.9671,VALID,352,VALID,0.963672,
2010-03-05, 03:32:05,VALID,1005.11,VALID,0,VALID,88.6476,VALID,0,VALID,25.0469,VALID,357,VALID,1.1582,
2010-03-05, 03:33:05,VALID,1005.13,VALID,0,VALID,88.2738,VALID,0,VALID,25.1053,VALID,350,VALID,0.610937,
2010-03-05, 03:34:05,VALID,1005.12,VALID,0,VALID,87.9915,VALID,0,VALID,25.1248,VALID,359,VALID,0.912891,
2010-03-05, 03:35:05,VALID,1005.13,VALID,0,VALID,87.7092,VALID,0,VALID,25.1442,VALID,349,VALID,0.650781,
2010-03-05, 03:36:05,VALID,1005.09,VALID,0,VALID,87.4117,VALID,0,VALID,25.2027,VALID,7,VALID,0.844531,
2010-03-05, 03:37:05,VALID,1005.12,VALID,0,VALID,87.1676,VALID,0,VALID,25.2416,VALID,355,VALID,0.927344,
2010-03-05, 03:38:05,VALID,1005.12,VALID,0,VALID,87.1447,VALID,0,VALID,25.3,VALID,349,VALID,0.627734,
2010-03-05, 03:39:05,VALID,1005.15,VALID,0,VALID,87.1294,VALID,0,VALID,25.3,VALID,336,VALID,1.06367,
2010-03-05, 03:40:05,VALID,1005.16,VALID,0,VALID,87.0379,VALID,0,VALID,25.3584,VALID,356,VALID,0.632422,
2010-03-05, 03:41:05,VALID,1005.18,VALID,0,VALID,86.8014,VALID,0,VALID,25.3974,VALID,10,VALID,1.30391,
2010-03-05, 03:42:05,VALID,1005.23,VALID,0,VALID,86.7861,VALID,0,VALID,25.4149,VALID,10,VALID,0.775,
2010-03-05, 03:43:05,VALID,1005.25,VALID,0,VALID,86.542,VALID,0,VALID,25.4753,VALID,355,VALID,0.93125,
2010-03-05, 03:44:05,VALID,1005.26,VALID,0,VALID,86.5039,VALID,0,VALID,25.5142,VALID,10,VALID,0.890234,
2010-03-05, 03:45:05,VALID,1005.26,VALID,0,VALID,86.3742,VALID,0,VALID,25.5337,VALID,342,VALID,0.546094,